Meteo orario Gogolevka

Oggi, 15 Aprile, Giovedi

Tempo Temperatura Precipitazioni Vento Pressione Umidità
00:00 +6°C° 0 mm 2 m/s 747 mm Hg 71%
01:00 +6°C° 0 mm 2 m/s 747 mm Hg 72%
02:00 +7°C° 0 mm 1 m/s 747 mm Hg 72%
03:00 +6°C° 0 mm 1 m/s 747 mm Hg 72%
04:00 +6°C° 0 mm 1 m/s 747 mm Hg 72%
05:00 +7°C° 0 mm 1 m/s 747 mm Hg 70%
06:00 +7°C° 0 mm 1 m/s 746 mm Hg 68%
07:00 +8°C° 0 mm 1 m/s 746 mm Hg 67%
08:00 +9°C° 0 mm 1 m/s 746 mm Hg 60%
09:00 +10°C° 0 mm 2 m/s 746 mm Hg 53%
10:00 +13°C° 0 mm 2 m/s 746 mm Hg 49%
11:00 +14°C° 0 mm 2 m/s 745 mm Hg 46%
12:00 +16°C° 0 mm 2 m/s 745 mm Hg 42%
13:00 +17°C° 0 mm 2 m/s 745 mm Hg 38%
14:00 +17°C° 0 mm 2 m/s 744 mm Hg 37%
15:00 +18°C° 0 mm 2 m/s 744 mm Hg 36%
16:00 +18°C° 0 mm 2 m/s 744 mm Hg 36%
17:00 +17°C° 0 mm 2 m/s 743 mm Hg 41%
18:00 +15°C° 0 mm 2 m/s 743 mm Hg 46%
19:00 +14°C° 0 mm 2 m/s 742 mm Hg 52%
20:00 +13°C° 0 mm 2 m/s 742 mm Hg 54%
21:00 +12°C° 0 mm 2 m/s 742 mm Hg 57%
22:00 +10°C° 0 mm 2 m/s 742 mm Hg 59%
23:00 +11°C° 0 mm 1 m/s 742 mm Hg 60%

Domani, 16 Aprile, Venerdi

Tempo Temperatura Precipitazioni Vento Pressione Umidità
00:00 +10°C° 0 mm 1 m/s 741 mm Hg 60%
01:00 +10°C° 0 mm 1 m/s 741 mm Hg 61%
02:00 +8°C° 0 mm 0 m/s 741 mm Hg 61%
03:00 +8°C° 0 mm 0 m/s 741 mm Hg 61%
04:00 +7°C° 0 mm 0 m/s 741 mm Hg 62%
05:00 +9°C° 0 mm 1 m/s 741 mm Hg 62%
06:00 +9°C° 0 mm 1 m/s 741 mm Hg 62%
07:00 +10°C° 0 mm 1 m/s 741 mm Hg 62%
08:00 +11°C° 0 mm 1 m/s 741 mm Hg 57%
09:00 +13°C° 0 mm 1 m/s 741 mm Hg 52%
10:00 +14°C° 0 mm 1 m/s 741 mm Hg 46%
11:00 +15°C° 0 mm 1 m/s 741 mm Hg 43%
12:00 +16°C° 0 mm 1 m/s 741 mm Hg 39%
13:00 +18°C° 0 mm 1 m/s 741 mm Hg 36%
14:00 +19°C° 0 mm 1 m/s 740 mm Hg 35%
15:00 +18°C° 0 mm 2 m/s 740 mm Hg 34%
16:00 +18°C° 0 mm 2 m/s 740 mm Hg 33%
17:00 +17°C° 0 mm 2 m/s 740 mm Hg 38%
18:00 +16°C° 0 mm 2 m/s 740 mm Hg 44%
19:00 +14°C° 0 mm 2 m/s 740 mm Hg 49%
20:00 +12°C° 0 mm 3 m/s 740 mm Hg 56%
21:00 +11°C° 0 mm 4 m/s 741 mm Hg 62%
22:00 +10°C° 0 mm 4 m/s 741 mm Hg 69%
23:00 +10°C° 0 mm 4 m/s 741 mm Hg 77%

Dopodomani, 17 Aprile, Sabato

Tempo Temperatura Precipitazioni Vento Pressione Umidità
00:00 +8°C° 0 mm 5 m/s 741 mm Hg 85%
01:00 +7°C° 0 mm 5 m/s 741 mm Hg 93%
02:00 +7°C° 0 mm 5 m/s 742 mm Hg 92%
03:00 +7°C° 0 mm 5 m/s 742 mm Hg 90%
04:00 +7°C° 0 mm 5 m/s 742 mm Hg 88%
05:00 +7°C° 0 mm 5 m/s 742 mm Hg 87%
06:00 +7°C° 0 mm 5 m/s 742 mm Hg 85%
07:00 +7°C° 0 mm 5 m/s 742 mm Hg 83%
08:00 +8°C° 0 mm 4 m/s 742 mm Hg 82%
09:00 +8°C° 0 mm 4 m/s 743 mm Hg 80%
10:00 +10°C° 0 mm 4 m/s 743 mm Hg 78%
11:00 +10°C° 0 mm 4 m/s 743 mm Hg 75%
12:00 +11°C° 0 mm 4 m/s 743 mm Hg 72%
13:00 +12°C° 0 mm 4 m/s 742 mm Hg 69%
14:00 +13°C° 0 mm 3 m/s 742 mm Hg 66%
15:00 +13°C° 0 mm 3 m/s 742 mm Hg 63%
16:00 +14°C° 0 mm 3 m/s 742 mm Hg 61%
17:00 +13°C° 0 mm 3 m/s 742 mm Hg 65%
18:00 +12°C° 0 mm 3 m/s 742 mm Hg 70%
19:00 +11°C° 0 mm 3 m/s 742 mm Hg 75%
20:00 +10°C° 0 mm 3 m/s 741 mm Hg 77%
21:00 +9°C° 0 mm 3 m/s 741 mm Hg 79%
22:00 +8°C° 0 mm 3 m/s 741 mm Hg 81%
23:00 +8°C° 0 mm 2 m/s 741 mm Hg 82%

18 Aprile, Domenica

Tempo Temperatura Precipitazioni Vento Pressione Umidità
00:00 +8°C° 0 mm 2 m/s 741 mm Hg 82%
01:00 +7°C° 0 mm 2 m/s 741 mm Hg 83%
02:00 +8°C° 0 mm 1 m/s 741 mm Hg 83%
03:00 +8°C° 0 mm 1 m/s 740 mm Hg 83%
04:00 +7°C° 0 mm 0 m/s 740 mm Hg 83%
05:00 +8°C° 0 mm 1 m/s 740 mm Hg 82%
06:00 +9°C° 0 mm 1 m/s 740 mm Hg 81%
07:00 +9°C° 0 mm 1 m/s 740 mm Hg 79%
08:00 +11°C° 0 mm 1 m/s 740 mm Hg 73%
09:00 +12°C° 0 mm 2 m/s 739 mm Hg 67%
10:00 +14°C° 0 mm 2 m/s 739 mm Hg 62%
11:00 +14°C° 0 mm 3 m/s 739 mm Hg 56%
12:00 +16°C° 0 mm 3 m/s 739 mm Hg 51%
13:00 +17°C° 0 mm 3 m/s 739 mm Hg 46%
14:00 +17°C° 0 mm 3 m/s 738 mm Hg 42%
15:00 +17°C° 0 mm 3 m/s 738 mm Hg 39%
16:00 +17°C° 0 mm 4 m/s 738 mm Hg 36%
17:00 +15°C° 0 mm 4 m/s 738 mm Hg 41%
18:00 +14°C° 0 mm 4 m/s 738 mm Hg 46%
19:00 +12°C° 0 mm 4 m/s 738 mm Hg 51%
20:00 +9°C° 0 mm 6 m/s 739 mm Hg 59%
21:00 +6°C° 0 mm 7 m/s 740 mm Hg 67%
22:00 +3°C° 0 mm 9 m/s 740 mm Hg 75%
23:00 +1°C° 0 mm 9 m/s 741 mm Hg 71%

19 Aprile, Lunedi

Tempo Temperatura Precipitazioni Vento Pressione Umidità
00:00 0°C° 0 mm 9 m/s 742 mm Hg 67%
01:00 -1°C° 0 mm 9 m/s 742 mm Hg 62%
02:00 -1°C° 0 mm 9 m/s 743 mm Hg 62%
03:00 -3°C° 0 mm 9 m/s 743 mm Hg 62%
04:00 -4°C° 0 mm 9 m/s 744 mm Hg 61%
05:00 -4°C° 0 mm 9 m/s 744 mm Hg 59%
06:00 -5°C° 0 mm 9 m/s 745 mm Hg 58%
07:00 -5°C° 0 mm 9 m/s 745 mm Hg 56%
08:00 -5°C° 0 mm 9 m/s 745 mm Hg 52%
09:00 -4°C° 0 mm 9 m/s 745 mm Hg 48%
10:00 -4°C° 0 mm 9 m/s 745 mm Hg 44%
11:00 -3°C° 0 mm 9 m/s 745 mm Hg 42%
12:00 -1°C° 0 mm 9 m/s 745 mm Hg 40%
13:00 -1°C° 0 mm 9 m/s 745 mm Hg 39%
14:00 -1°C° 0 mm 9 m/s 745 mm Hg 40%
15:00 -1°C° 0 mm 8 m/s 745 mm Hg 41%
16:00 -1°C° 0 mm 8 m/s 745 mm Hg 43%
17:00 -2°C° 0 mm 8 m/s 745 mm Hg 44%
18:00 -2°C° 0 mm 8 m/s 745 mm Hg 45%
19:00 -4°C° 0 mm 8 m/s 746 mm Hg 46%
20:00 -4°C° 0 mm 8 m/s 746 mm Hg 47%
21:00 -5°C° 0 mm 8 m/s 746 mm Hg 48%
22:00 -5°C° 0 mm 8 m/s 746 mm Hg 48%
23:00 -5°C° 0 mm 8 m/s 746 mm Hg 48%

20 Aprile, Martedi

Tempo Temperatura Precipitazioni Vento Pressione Umidità
00:00 -6°C° 0 mm 8 m/s 746 mm Hg 47%
01:00 -6°C° 0 mm 8 m/s 746 mm Hg 47%
02:00 -6°C° 0 mm 8 m/s 746 mm Hg 46%
03:00 -7°C° 0 mm 8 m/s 746 mm Hg 45%
04:00 -7°C° 0 mm 8 m/s 746 mm Hg 45%
05:00 -6°C° 0 mm 8 m/s 747 mm Hg 42%
06:00 -6°C° 0 mm 8 m/s 747 mm Hg 40%
07:00 -6°C° 0 mm 9 m/s 747 mm Hg 38%
08:00 -5°C° 0 mm 9 m/s 747 mm Hg 36%
09:00 -4°C° 0 mm 9 m/s 747 mm Hg 33%
10:00 -3°C° 0 mm 10 m/s 747 mm Hg 31%
11:00 -1°C° 0 mm 9 m/s 747 mm Hg 31%
12:00 -1°C° 0 mm 9 m/s 747 mm Hg 31%
13:00 0°C° 0 mm 9 m/s 747 mm Hg 31%
14:00 0°C° 0 mm 8 m/s 747 mm Hg 32%
15:00 +1°C° 0 mm 8 m/s 747 mm Hg 32%
16:00 +1°C° 0 mm 8 m/s 747 mm Hg 33%
17:00 0°C° 0 mm 7 m/s 747 mm Hg 37%
18:00 -1°C° 0 mm 6 m/s 747 mm Hg 40%
19:00 0°C° 0 mm 5 m/s 748 mm Hg 44%
20:00 -1°C° 0 mm 4 m/s 748 mm Hg 48%
21:00 -1°C° 0 mm 3 m/s 748 mm Hg 52%
22:00 -1°C° 0 mm 3 m/s 748 mm Hg 56%
23:00 -2°C° 0 mm 2 m/s 748 mm Hg 56%
Mostrare altro

Abbiamo bisogno del tuo consenso

Meteoprog e i nostri fornitori di servizi possono memorizzare e accedere a dati personali come cookie, identificatori di dispositivi o altre tecnologie simili sul tuo dispositivo e possono elaborare tali dati per personalizzare i contenuti e gli annunci, nonché fornire funzionalità dei social media e analizzarne il traffico.

  • Archiviare e/o accedere alle informazioni sul tuo dispositivo

    Cookie, identificatori di dispositivi o altre informazioni possono essere memorizzati o resi accessibili sul tuo dispositivo per le finalità sopra indicate.

  • Annunci e contenuti personalizzati, misurazione di annunci e contenuti, approfondimenti sul pubblico e sviluppo di prodotti

    Gli annunci e i contenuti possono essere personalizzati in base a un profilo. È possibile aggiungere più dati per personalizzare meglio annunci e contenuti. È possibile misurare il rendimento degli annunci e dei contenuti. È possibile ricavare informazioni sul pubblico che ha visto gli annunci e i contenuti. Tali dati possono essere utilizzati per sviluppare o migliorare l'esperienza, i sistemi e il software dell'utente.

Cliccando su “Accetto”, acconsenti all'uso di cookie, identificatori di dispositivo, web beacon o altre tecnologie simili. Puoi modificare le impostazioni nel browser del tuo dispositivo.

Per determinati scopi, è possibile fare affidamento su interessi legali, piuttosto che sul consenso. Puoi approfondire questo argomento consultando la nostra Informativa sulla privacy e sui cookie.